Location: Aranbee
(34.0885°N, 118.2342°W)
Time: 08:45:35
(UTC+00:00)

Courier 1B Rocket - Pass Details

Date: 04 December 2020
Orbit: 920 x 1202 km, 28.2° (Epoch: 27 January)

Event Time Altitude Azimuth Distance (km) Brightness Sun altitude
Rises 09:31:35 0° 217° (SW) 3,881 - -63.5°
Reaches altitude 10° 09:34:52 10° 204° (SSW) 2,973 - -62.9°
Maximum altitude 09:40:31 24° 154° (SSE) 2,180 - -61.8°
Drops below altitude 10° 09:46:23 10° 104° (ESE) 3,101 - -60.6°
Exits shadow 09:48:22 - 96° (E) 3,643 8.3 -60.2°
Sets 09:49:53 0° 91° (E) 4,086 8.7 -59.9°
